Content
SEND FEEDBACK

Australia Flag

COROWA, NEW SOUTH WALES


Home > Oceania > Australia > New South Wales
Elevation: 469 feet     Latitude: 35 59S     Longitude: 146 21E

WEATHER
 
SELECT A DAY
Number of Records: 151,262;   Date Range: 2/21/03 - 3/22/16
 
SHARE

PRINT THIS DATA

[ ← Previous Day ]
WEATHER ALMANAC - FEBRUARY 14, 2013
[ Next Day → ]
[ °C ]   °F
Weather ElementAverageHighLow
Temperature75.5 °F89.6 °F (4:00 pm)62 °F (6:00 am)
Dewpoint50.6 °F55.4 °F (10:00 pm)46.4 °F (2:00 pm)
Humidity42.4 %68 % (5:00 am)14 % (3:00 pm)
Barometer30.06 in30.12 in (7:00 am)29.98 in (5:00 pm)
Wind Speed6.4 mph13.8 mph (12:00 pm)
Weather ElementAverage
Wind DirectionSSE (151 °)

Weather ElementTotal
Precipitation---
Cooling Degree Days10.8 (Base 65)
Growing Degree Days25.8 (Base 50)
Averaged from 31 records on February 14, 2013
WEATHER CONDITIONS BREAKOUT
WIND DIRECTION BREAKOUT
WEATHER BY HOUR - FEBRUARY 14, 2013
[ °C ]   °F
Local TimeTemperatureDewpointHumidityBarometerVisibilityWind DirectionWind SpeedGust SpeedPrecipitationEventsConditions
12:00 AM69.8 °F51.8 °F53 %30.04 inSSE (160°)2.3 mph
1:00 AM66.2 °F50.0 °F56 %30.06 inCalm
2:00 AM64.4 °F50.0 °F59 %30.06 inCalm
3:00 AM64.0 °F51.0 °F52 %30.05 inCalm
3:00 AM64.4 °F50.0 °F59 %30.06 inCalm
4:00 AM66.2 °F53.6 °F64 %30.06 inNNE (20°)3.5 mph
5:00 AM62.6 °F51.8 °F68 %30.06 inCalm
6:00 AM62.6 °F51.8 °F68 %30.09 inSouth (180°)5.8 mph
6:00 AM62.0 °F52.0 °F61 %30.09 inSouth (180°)5.8 mph
7:00 AM64.4 °F53.6 °F68 %30.12 inSouth (180°)2.3 mph
8:00 AM69.8 °F53.6 °F56 %30.12 inESE (110°)3.5 mph
9:00 AM74.0 °F51.0 °F34 %30.12 inNorth (10°)8.1 mph
9:00 AM75.2 °F51.8 °F44 %30.12 inNorth (10°)8.1 mph
10:00 AM77.0 °F48.2 °F36 %30.12 inNorth (360°)11.5 mph
11:00 AM78.8 °F48.2 °F34 %30.12 inNorth (360°)11.5 mph
12:00 PM82.4 °F48.2 °F30 %30.12 inNNW (340°)13.8 mph
12:00 PM82.0 °F47.0 °F20 %30.11 inNNW (340°)13.8 mph
1:00 PM84.2 °F48.2 °F29 %30.09 inNorth (10°)8.1 mph
2:00 PM86.0 °F46.4 °F25 %30.06 inWNW (290°)5.8 mph
3:00 PM89.0 °F47.0 °F14 %30.03 inWest (280°)6.9 mph
3:00 PM87.8 °F46.4 °F24 %30.04 inWest (280°)6.9 mph
4:00 PM89.6 °F46.4 °F22 %30.01 inNorth (10°)4.6 mph
5:00 PM89.6 °F46.4 °F22 %29.98 inNE (50°)6.9 mph
6:00 PM86.0 °F50.0 °F29 %29.98 inSouth (170°)12.7 mph
6:00 PM85.0 °F49.0 °F19 %29.99 inSouth (180°)12.7 mph
7:00 PM80.6 °F51.8 °F37 %30.01 inSE (130°)11.5 mph
8:00 PM77.0 °F53.6 °F44 %30.04 inSE (140°)5.8 mph
9:00 PM75.0 °F54.0 °F37 %30.04 inSouth (180°)5.8 mph
9:00 PM75.2 °F53.6 °F47 %30.04 inSouth (180°)5.8 mph
10:00 PM75.2 °F55.4 °F50 %30.06 inSE (130°)6.9 mph
11:00 PM73.4 °F55.4 °F53 %30.09 inWSW (250°)9.2 mph
Hourly data recorded from YWGT, located miles away from Corowa, New South Wales




STORIES FROM OUR PARTNERS